Regional Weather Roundup
Issued by NWS Little Rock, AR

Home | Current Version | Previous Version | Graphics & Text | Print | Product List | Glossary On
Versions: 1 2 3 4 5 6 7 8 9 10 11 12 13 14 15 16 17 18 19 20 21 22 23 24 25 26 27 28 29 30 31
000
ASUS44 KLZK 181305
RWRLZK

WEATHER ROUNDUP FOR ARKANSAS
NATIONAL WEATHER SERVICE LITTLE ROCK AR
700 AM CST THU JAN 18 2018

NOTE: "FAIR" INDICATES FEW OR NO CLOUDS BELOW 12,000 FEET WITH NO
SIGNIFICANT WEATHER AND/OR OBSTRUCTIONS TO VISIBILITY.

ARZ001-003-010-029-181400-
NORTHWEST ARKANSAS

CITY           SKY/WX    TMP DP  RH WIND       PRES   REMARKS
FAYETTEVILLE   CLOUDY    17   7  64 SW6       30.44F WCI   9
FORT SMITH     CLOUDY    13   8  81 CALM      30.53S
HARRISON       CLEAR     23   4  44 W3        30.42S
BENTONVILLE    CLOUDY    16   7  67 S5        30.44F WCI   9
ROGERS         CLOUDY    18   8  65 SW10      30.42F WCI   6
SILOAM SPGS    CLOUDY    16   7  67 S8        30.43F WCI   5
HIGHFILL       CLOUDY    17   6  62 S9        30.42F WCI   6
SPRINGDALE     CLEAR     19   5  53 S6        30.45S WCI  11
$$

ARZ004-005-016-181400-
NORTH CENTRAL ARKANSAS

CITY           SKY/WX    TMP DP  RH WIND       PRES   REMARKS
BATESVILLE     FAIR      17  10  74 S6        30.51S WCI   9
FLIPPIN        CLOUDY     5   2  87 CALM      30.48S
MTN HOME       MIX PCPN  11   7  84 CALM      30.44F
$$

ARZ040-041-181400-
WEST CENTRAL ARKANSAS

CITY           SKY/WX    TMP DP  RH WIND       PRES   REMARKS
MENA           CLOUDY    25  10  54 SW7       30.49S WCI  17
MOUNT IDA      CLOUDY    10   7  87 CALM      30.50R
$$

ARZ009-017-025-026-028-181400-
NORTHEAST ARKANSAS

CITY           SKY/WX    TMP DP  RH WIND       PRES   REMARKS
JONESBORO      FAIR      16  12  84 S6        30.54R WCI   7
NEWPORT        FAIR      16  12  84 S9        30.55R WCI   4
WALNUT RIDGE   FAIR      14  11  87 S7        30.52S WCI   4
BLYTHEVILLE    FAIR      11   9  92 SW8       30.55R WCI  -1
$$

ARZ022-023-033-042-044-181400-
CENTRAL ARKANSAS

CITY           SKY/WX    TMP DP  RH WIND       PRES   REMARKS
LITTLE ROCK    FAIR      13  10  88 CALM      30.57S
N LITTLE ROCK    N/A     17  12  79 CALM      30.52F
JACKSONVILLE   FAIR       8   4  83 CALM      30.54S
SEARCY         FAIR      10   9  95 SW5       30.56S WCI   2
HOT SPRINGS    FAIR      17  12  80 CALM      30.54F
RUSSELLVILLE   CLOUDY     9   7  92 CALM      30.53R
CLINTON        FAIR       7   5  92 CALM      30.53S
$$

ARZ036-181400-
EAST ARKANSAS

CITY           SKY/WX    TMP DP  RH WIND       PRES   REMARKS
WEST MEMPHIS   FAIR      10   9  95 CALM      30.57R
$$

ARZ050-053-066-070-073-181400-
SOUTHWEST ARKANSAS

CITY           SKY/WX    TMP DP  RH WIND       PRES   REMARKS
ARKADELPHIA    FAIR       8   3  80 CALM      30.60S
CAMDEN         FAIR       7   1  78 CALM      30.59S
TEXARKANA      FAIR      14  11  87 SW5       30.56F WCI   6
EL DORADO      FAIR      10   8  92 CALM      30.59S
DE QUEEN       CLOUDY    11   9  92 CALM      30.56S
$$

ARZ056-057-069-181400-
SOUTHEAST ARKANSAS

CITY           SKY/WX    TMP DP  RH WIND       PRES   REMARKS
PINE BLUFF     FAIR      11   8  88 CALM      30.59S
STUTTGART      FAIR      13  10  88 SW6       30.58S WCI   4
MONTICELLO     FAIR      11   7  84 CALM      30.59S

$$






USA.gov is the U.S. government's official web portal to all federal, state and local government web resources and services.